GFSSW_925_temp_216.txt.gz
Temp
15 15 16 17 17 17 18 19 19 20 21 21 21 22 24 26 26 24 32 32 28 25 25 27 27 28 29 31 31 31 31 28 31 32 30 32 29 30 30 31 31 30 28 30 26
13 15 16 16 17 17 18 18 19 20 21 21 21 22 24 25 23 31 31 30 29 27 28 29 30 30 32 33 33 33 34 28 31 33 30 32 32 32 30 26 29 29 29 27 27
12 14 15 16 17 17 17 18 19 20 20 21 22 22 23 25 29 35 29 30 29 28 30 31 31 32 32 33 34 34 33 35 32 33 34 33 33 33 32 31 31 29 27 28 27
13 14 15 16 17 17 17 18 19 20 20 21 22 23 24 23 32 29 28 28 27 28 30 31 32 33 33 34 35 35 35 34 35 33 34 34 34 33 33 33 33 31 29 29 29
11 14 15 16 16 17 17 18 19 20 20 21 22 23 24 30 33 27 28 26 26 29 31 33 33 34 35 35 35 34 34 35 36 33 35 35 34 34 33 33 32 31 29 29 30
10 12 13 15 16 17 17 18 19 20 21 21 22 22 25 30 29 26 26 25 29 30 32 32 34 34 34 36 35 36 36 36 35 34 34 35 34 34 32 32 31 30 30 30 30
10 12 13 14 16 17 17 19 20 20 21 22 22 21 27 31 28 27 27 28 30 31 33 32 33 33 35 36 36 36 36 36 36 35 34 35 33 33 32 32 30 30 30 30 30
10 11 12 14 16 17 18 19 20 20 21 22 21 22 29 27 27 26 28 28 29 30 31 32 32 34 34 36 36 36 37 35 35 35 34 35 34 34 32 32 31 30 30 30 30
10 11 11 14 16 17 19 19 19 19 20 20 21 25 29 25 27 29 29 31 30 29 30 31 33 34 35 35 36 36 34 35 34 35 34 34 35 33 33 33 31 31 30 30 30
11 11 12 13 15 17 19 19 19 19 19 18 21 25 28 29 29 29 29 30 32 32 31 31 33 34 35 36 35 36 35 36 35 35 35 35 35 32 32 33 32 31 31 30 30
11 12 12 14 16 17 19 21 24 24 23 28 28 29 27 27 26 29 30 30 32 32 32 33 33 33 35 36 36 36 36 35 36 36 35 36 36 35 33 33 33 32 31 31 31
11 11 13 15 16 17 18 23 19 18 23 26 26 26 25 25 27 29 29 31 31 32 33 33 33 35 36 36 35 35 35 35 35 35 35 36 36 37 35 34 34 33 32 32 31
11 11 14 15 16 17 19 18 16 17 23 26 26 26 27 26 28 30 30 31 32 32 33 33 34 35 35 34 34 35 35 36 35 35 36 35 36 36 36 35 35 34 34 33 32
11 11 13 15 16 16 20 16 16 17 25 27 26 27 26 27 27 30 30 31 31 32 33 33 35 35 34 34 35 34 35 35 35 34 35 36 35 36 36 35 34 34 34 33 33
12 11 12 12 14 19 18 16 17 19 25 27 26 26 27 27 28 28 29 31 31 31 33 33 34 34 33 34 35 35 36 35 35 34 35 35 35 37 37 35 35 35 34 34 33
13 12 13 11 13 16 15 17 19 23 24 26 27 26 27 27 28 28 29 30 32 32 32 33 35 35 34 35 35 36 34 34 34 35 34 35 35 36 38 37 38 37 36 35 34
14 14 13 11 19 14 15 21 23 24 26 25 26 27 28 28 28 28 28 29 29 28 29 31 33 34 34 34 35 34 34 32 32 33 33 36 36 36 37 37 37 38 38 36 35
14 14 13 12 14 14 18 22 22 24 24 25 25 26 27 27 27 28 29 29 30 31 32 31 30 32 33 34 34 33 34 33 31 33 34 36 34 35 38 38 39 38 39 39 37
14 15 17 15 14 15 22 22 24 23 23 24 25 25 26 26 27 28 29 29 29 28 30 32 31 34 33 34 34 33 33 35 34 35 34 36 35 37 37 37 38 38 38 38 38
13 18 18 15 15 19 22 21 22 22 23 23 24 24 26 26 27 28 27 25 26 26 28 31 31 32 32 34 34 34 34 33 33 31 32 34 34 35 36 37 38 37 38 38 36
15 21 17 15 16 22 22 22 21 22 22 23 23 24 25 25 26 27 26 24 25 26 28 31 31 31 32 31 32 32 32 33 35 34 33 33 34 37 36 37 37 36 38 37 36
17 21 17 16 21 21 21 20 16 22 22 23 23 24 24 24 25 25 25 25 24 25 28 28 31 30 30 33 33 34 33 33 33 32 34 34 35 38 37 37 36 35 37 36 36
18 19 18 18 21 21 20 20 20 21 21 22 23 23 23 23 23 24 24 23 24 25 25 27 29 29 30 31 31 31 33 34 34 34 33 32 34 38 38 37 37 35 36 36 35
18 20 20 20 19 19 19 20 20 21 21 21 22 23 23 23 23 23 23 23 23 24 19 23 28 29 29 30 31 30 31 32 33 32 32 33 34 36 36 36 36 36 34 34 35
17 17 15 18 19 18 18 18 19 20 21 21 21 22 23 22 23 23 23 23 24 22 24 26 27 26 27 27 28 30 31 31 31 32 32 33 34 34 35 35 34 33 34 34 34
17 17 17 16 16 16 15 16 17 18 19 20 21 21 22 22 22 22 23 23 23 24 24 25 25 25 27 27 28 28 29 29 30 31 32 32 32 35 34 33 32 32 32 32 32
13 13 16 12 14 14 12 12 12 15 18 18 18 20 21 20 21 22 23 23 23 23 23 24 25 25 27 27 27 27 29 30 30 31 31 31 32 31 30 30 29 30 30 30 31

GFSSW_925_temp_219.txt.gz
Temp
14 15 16 17 18 18 18 18 19 20 20 21 22 23 23 25 28 25 34 33 31 28 26 29 31 32 33 35 36 34 31 31 31 32 33 34 33 33 33 34 34 33 33 32 30
12 15 16 16 17 17 18 18 20 20 20 21 22 23 24 25 25 33 33 32 30 28 29 32 34 33 35 37 37 24 30 32 34 34 33 34 34 32 32 32 32 33 34 31 30
11 13 15 16 17 17 17 18 19 20 21 21 22 23 24 24 31 36 30 31 30 29 33 34 35 35 35 38 38 33 33 31 33 36 36 33 31 35 33 29 33 32 31 31 30
10 12 15 15 16 17 17 18 19 20 21 22 22 23 24 24 33 31 30 30 30 29 33 35 36 36 34 37 38 35 34 35 33 34 34 33 35 33 30 29 34 33 32 32 31
10 11 14 15 16 17 17 18 19 20 20 21 22 23 24 31 34 30 30 29 26 28 34 36 36 37 35 38 38 35 36 34 36 35 35 35 36 36 35 36 35 33 32 32 32
11 12 14 15 16 17 18 18 19 20 21 22 22 23 25 31 33 28 29 27 30 32 35 36 37 38 37 38 38 38 34 35 37 36 37 37 37 37 36 35 34 32 32 33 33
13 13 13 15 16 17 18 19 19 20 21 22 22 21 29 33 33 32 31 30 32 34 36 36 36 37 38 38 39 39 35 37 37 37 37 37 36 36 36 35 33 33 32 33 33
12 12 13 14 16 17 18 19 20 20 21 22 22 23 30 32 32 31 32 32 33 34 35 36 35 36 37 39 38 38 34 33 37 38 38 27 24 35 36 35 33 33 33 33 33
12 12 13 14 16 17 19 19 20 20 20 21 22 27 31 29 31 32 32 34 34 34 34 34 35 36 37 37 37 38 31 27 25 36 37 32 22 30 35 35 33 34 33 33 33
12 12 13 15 16 18 19 20 19 20 20 22 25 28 30 32 33 32 33 33 35 35 34 34 35 36 37 37 36 38 37 32 27 35 37 32 26 35 36 36 35 34 34 33 33
13 13 14 15 16 18 19 23 25 25 26 30 31 31 32 31 30 31 33 33 34 34 33 34 34 35 36 38 39 38 37 34 28 27 34 36 32 37 37 37 36 35 34 33 33
13 14 15 16 16 19 19 27 24 23 25 30 30 30 31 29 31 32 33 33 33 33 34 35 34 36 38 38 38 37 37 37 38 36 38 37 38 38 37 37 37 36 35 34 34
13 14 15 16 17 18 23 23 22 23 25 30 31 30 31 30 30 33 34 33 33 33 34 34 36 37 37 37 37 37 37 38 38 38 38 38 37 38 38 37 38 38 37 36 35
12 13 14 17 17 22 24 21 22 22 26 30 29 30 31 31 30 32 34 33 33 33 34 35 37 37 36 36 37 36 38 38 37 37 37 38 37 37 39 38 37 38 37 36 35
13 13 15 15 16 23 22 22 22 23 26 31 30 30 32 30 33 32 33 33 32 34 35 34 36 36 36 36 37 36 38 38 37 37 37 37 37 38 39 37 38 38 38 38 36
14 14 15 14 16 21 20 22 23 25 26 29 30 29 29 30 32 33 32 33 34 33 35 35 37 37 37 38 37 38 37 36 37 37 35 37 38 38 39 39 39 39 38 38 37
15 15 14 16 23 20 21 24 24 26 30 29 29 30 30 31 30 31 30 30 31 30 31 34 35 37 37 36 37 37 36 34 34 35 35 38 38 38 39 40 40 39 39 39 38
15 16 17 18 19 19 22 24 23 28 29 29 28 30 29 31 31 31 31 31 32 33 33 32 33 35 37 36 36 36 36 35 32 34 36 38 37 38 40 40 40 40 40 40 40
16 18 20 20 19 20 24 24 26 28 27 27 29 28 29 31 30 30 31 32 32 33 32 33 33 36 36 37 37 36 35 37 36 37 37 38 39 40 39 39 40 40 40 40 40
14 22 23 20 20 22 23 23 26 26 26 27 26 29 28 29 29 30 31 32 33 33 34 33 33 36 36 36 36 36 37 35 35 33 34 37 37 38 38 38 39 39 39 40 40
15 24 21 21 21 23 24 26 26 26 26 26 27 27 28 29 30 30 31 29 30 31 31 32 33 34 36 35 34 35 35 36 37 36 35 35 37 40 39 39 39 39 38 38 39
21 23 21 21 23 25 25 25 16 25 26 25 26 26 27 28 28 29 30 29 28 30 29 32 33 32 34 36 36 36 35 36 35 33 36 36 37 41 40 40 38 38 38 38 38
22 23 22 22 23 25 25 24 24 24 25 25 25 26 27 27 26 28 28 27 28 29 29 32 31 31 33 34 35 34 36 36 36 36 35 35 36 40 39 39 38 38 37 37 37
22 23 24 24 23 22 23 23 23 24 23 24 25 25 25 26 27 26 27 26 27 28 21 25 31 31 32 33 34 32 34 35 35 35 35 36 36 38 39 39 38 37 36 35 36
22 22 20 23 23 21 22 22 22 22 23 24 24 25 25 25 26 26 27 26 27 23 26 29 29 31 33 32 33 34 33 34 34 35 35 36 36 37 38 37 37 36 35 35 35
20 20 22 21 21 20 17 19 17 18 21 22 23 25 25 25 26 26 26 27 27 27 28 29 28 29 30 31 31 32 33 34 34 34 34 35 35 38 38 36 35 34 34 33 33
18 18 20 15 19 19 17 15 16 17 19 20 22 23 23 23 24 25 27 27 27 26 27 27 28 28 28 31 31 30 31 32 33 34 34 33 34 35 35 33 33 32 32 31 31

GFSSW_925_temp_222.txt.gz
Temp
13 15 16 17 17 17 18 19 19 20 20 22 22 22 24 26 27 27 32 33 32 30 27 28 30 33 34 35 34 35 33 25 26 31 33 35 34 34 34 35 35 34 32 32 31
11 13 15 16 17 17 18 18 19 20 20 22 23 23 24 25 25 31 33 33 32 30 28 32 34 35 34 34 28 28 31 31 31 29 32 33 32 34 34 34 33 34 33 31 31
10 13 15 16 17 17 18 18 19 20 20 21 22 23 24 24 29 36 31 32 32 31 32 35 37 37 36 35 30 27 32 33 34 32 31 35 35 35 34 32 34 33 32 32 31
12 13 15 16 16 17 18 18 19 20 21 21 22 23 24 24 32 32 32 31 31 30 30 36 37 36 36 37 32 33 36 36 34 35 32 34 35 33 34 34 32 34 32 32 32
12 13 14 15 16 17 18 18 19 20 21 22 22 22 23 30 33 32 32 31 28 28 32 36 36 37 35 37 39 38 36 36 36 35 32 29 34 32 33 31 31 33 33 32 32
13 13 13 14 16 17 18 18 19 20 21 22 22 22 23 29 34 32 31 28 31 30 33 36 37 38 35 36 38 39 37 36 37 35 31 24 26 33 34 33 33 33 32 33 33
13 14 14 15 16 17 18 19 19 20 21 22 22 20 27 31 34 33 33 32 32 33 35 37 38 37 38 37 40 38 34 34 35 35 34 32 31 30 36 35 33 33 33 33 33
14 14 15 16 16 17 18 19 20 20 21 22 22 21 28 32 32 34 34 34 34 34 36 37 38 37 37 38 38 38 34 28 30 32 31 29 28 28 31 35 33 33 33 33 33
14 14 15 15 17 17 19 20 20 20 20 21 21 25 30 32 32 33 34 35 35 35 36 36 37 36 37 36 36 38 36 30 27 32 23 28 24 29 30 34 34 32 32 33 33
14 14 15 16 17 17 20 22 21 20 21 21 24 28 31 32 34 33 34 34 36 36 36 36 35 35 36 36 35 37 37 33 27 28 24 23 29 30 31 35 35 34 33 33 33
14 15 15 16 17 18 19 21 25 24 25 29 31 30 34 33 33 34 34 35 35 35 34 35 34 33 35 37 38 38 36 34 32 30 27 24 24 28 28 35 34 34 34 34 34
14 15 15 17 18 19 18 24 26 26 25 30 30 31 33 33 31 33 34 34 33 33 34 34 33 35 37 38 38 38 38 35 33 34 30 24 26 27 28 32 36 35 34 34 34
14 15 16 17 19 19 22 26 25 26 26 29 31 31 32 33 31 33 34 34 33 33 34 33 35 36 36 37 37 38 38 34 33 35 33 29 27 28 33 35 37 37 36 35 35
14 15 16 17 17 23 26 25 25 26 25 29 31 32 33 33 31 33 34 34 33 33 34 34 36 36 36 36 37 37 39 39 37 34 35 38 35 32 35 37 38 38 37 36 35
14 15 16 14 16 24 25 25 25 26 25 32 32 33 33 32 33 33 33 34 33 33 34 34 35 35 35 36 38 37 39 38 38 37 38 37 37 35 37 35 37 38 38 37 36
15 15 16 17 16 21 23 24 25 25 25 31 31 30 31 31 31 34 33 34 34 33 34 34 37 36 37 38 38 39 38 38 37 37 35 37 37 34 38 36 38 38 38 38 36
15 16 15 16 23 23 23 25 24 25 31 31 31 31 31 31 31 32 32 31 31 30 31 33 34 36 37 36 38 37 37 34 33 34 35 38 37 37 37 38 40 38 39 38 37
15 16 17 18 21 23 23 24 23 28 29 32 31 31 30 31 32 32 32 31 32 32 32 31 32 35 37 36 36 37 37 35 32 33 35 38 36 38 38 39 40 40 39 39 39
16 19 19 21 22 22 24 23 25 28 29 29 30 29 29 31 32 32 31 31 32 32 31 32 32 36 36 37 37 36 36 37 36 36 36 37 39 40 39 39 40 40 38 36 38
11 19 24 24 23 24 24 22 26 29 28 28 27 28 28 30 31 31 31 33 32 34 33 33 32 35 36 37 37 37 37 35 36 33 32 36 34 34 35 38 40 40 40 39 40
14 23 24 24 24 24 23 26 28 28 27 26 27 27 29 30 31 30 30 32 33 33 34 33 33 34 36 35 35 36 36 36 37 37 34 34 36 37 34 34 39 40 39 39 39
21 24 24 24 24 25 26 26 18 27 27 27 27 27 27 29 29 29 29 27 32 32 31 33 33 32 33 36 37 37 36 36 34 32 36 36 37 37 36 37 40 39 39 38 38
22 26 25 24 23 25 22 25 26 25 26 26 26 27 28 28 27 29 27 29 29 30 30 31 31 30 31 34 37 36 36 36 36 35 33 35 36 34 35 35 37 38 37 36 37
22 24 26 26 26 24 24 24 25 25 25 26 26 27 27 27 28 28 25 27 29 30 23 27 29 30 31 33 36 35 35 36 36 35 34 36 36 37 36 37 37 37 36 36 35
23 24 23 23 23 23 23 23 23 23 22 24 24 25 26 25 27 27 28 27 28 25 28 29 29 31 32 33 34 35 35 35 34 35 35 36 37 38 35 33 34 36 35 34 34
21 21 22 24 23 22 20 21 20 21 20 19 21 21 26 26 24 24 27 28 27 29 28 30 28 30 30 33 33 32 35 35 35 36 36 36 36 32 32 34 34 34 34 33 32
20 20 22 19 22 20 19 18 18 19 20 20 17 19 21 21 23 26 27 28 28 28 28 29 29 28 28 31 32 31 33 34 35 36 35 35 29 29 29 30 30 30 30 29 29

GFSSW_925_temp_225.txt.gz
Temp
13 16 17 17 17 18 18 18 19 19 20 21 23 23 24 25 27 27 27 32 31 30 28 27 26 28 30 30 26 27 25 24 26 29 31 32 32 33 34 32 31 32 29 29 29
13 14 16 17 17 18 18 18 19 20 20 21 22 23 24 25 24 26 32 32 32 31 28 29 28 30 30 29 29 28 29 26 24 24 26 32 32 32 32 31 30 30 30 30 29
13 14 15 16 17 17 18 19 19 20 20 21 22 23 24 24 23 32 32 32 31 32 31 31 32 35 34 29 30 29 28 31 26 27 28 28 31 33 32 30 31 29 29 29 29
14 14 14 15 16 17 18 18 19 20 20 20 21 22 23 23 28 31 31 32 31 30 29 31 32 33 33 31 31 29 31 33 30 30 29 27 28 29 31 29 32 30 30 29 28
14 15 15 16 16 17 18 18 19 19 21 21 21 21 24 24 28 32 32 31 29 28 30 32 32 34 33 34 33 30 34 35 34 31 29 27 24 30 29 31 32 31 30 29 29
15 14 15 15 16 16 17 18 19 20 20 21 21 21 19 24 31 32 32 30 29 28 31 32 33 36 35 34 34 35 34 34 30 28 29 27 24 25 30 30 32 31 30 30 29
15 15 15 15 16 17 18 19 19 20 20 21 21 19 21 25 31 31 30 32 31 31 31 33 35 35 34 33 36 35 33 31 29 28 25 26 24 24 26 31 31 31 30 30 30
14 15 15 16 17 17 18 19 20 20 21 21 20 18 20 29 31 31 32 33 32 33 33 34 35 35 35 34 34 34 32 30 30 28 25 26 26 23 23 24 30 31 31 31 29
14 14 15 16 17 18 19 20 21 21 21 20 20 20 23 30 29 31 32 33 34 34 34 35 36 34 33 31 31 32 29 29 27 29 25 24 23 26 29 28 30 31 31 31 30
15 15 16 16 17 18 19 21 22 21 21 20 21 22 26 28 32 33 33 34 33 33 33 33 32 31 30 29 28 31 30 30 26 27 25 23 24 25 28 30 28 31 31 31 30
15 15 16 16 18 18 19 20 20 19 20 23 24 26 29 32 33 33 33 33 33 32 30 31 30 28 30 31 33 34 33 30 28 27 25 25 24 27 27 28 27 29 30 30 31
15 16 16 17 18 19 18 18 25 25 22 26 26 26 28 30 31 32 34 30 30 29 31 30 30 32 33 34 34 34 34 32 29 28 27 25 26 27 28 27 26 24 29 31 31
15 15 16 18 20 21 21 23 25 25 22 25 27 27 28 29 30 30 31 30 30 29 30 29 31 34 34 33 33 33 33 31 32 28 27 26 26 27 28 28 25 25 29 31 31
14 15 16 17 19 19 21 25 25 25 20 25 26 28 29 29 29 32 32 30 30 29 30 30 32 33 33 33 33 30 35 35 34 31 29 28 26 27 28 26 25 25 26 32 32
14 15 16 15 16 17 23 24 25 24 19 31 29 32 30 28 31 30 32 30 29 29 30 30 31 31 32 33 34 33 35 35 33 31 31 29 29 29 29 27 27 26 27 32 32
14 15 15 16 16 21 22 24 24 21 21 30 30 30 29 29 30 31 30 30 31 30 30 30 32 32 32 35 35 36 34 34 34 31 30 31 29 31 29 30 31 29 32 33 33
14 16 14 13 17 22 23 22 20 20 28 29 28 29 28 28 28 29 29 27 26 26 27 29 30 32 34 32 34 34 31 29 29 28 27 30 31 29 33 33 31 29 34 34 33
14 17 18 18 20 21 23 20 19 25 26 29 28 29 28 28 28 29 28 27 28 27 26 26 27 30 33 32 32 31 31 29 28 28 28 31 31 30 34 33 30 31 34 35 34
15 17 18 21 21 21 20 19 21 25 27 27 27 28 28 29 29 28 28 27 28 28 25 26 27 32 33 34 33 32 31 32 30 29 29 31 34 32 34 30 30 30 27 34 34
13 15 20 22 23 23 20 19 22 24 27 26 24 26 25 27 27 27 27 29 30 30 28 27 26 29 33 33 33 32 33 31 30 28 28 31 31 31 32 33 31 29 32 34 33
14 19 24 24 24 20 19 21 24 27 27 25 24 24 24 25 26 26 28 30 30 31 29 28 26 28 30 31 31 32 31 32 30 28 27 28 28 30 31 35 33 31 33 31 32
17 20 24 24 21 21 22 22 21 24 26 25 25 25 24 25 25 26 27 26 28 28 29 29 27 25 28 31 33 33 31 30 29 28 28 27 30 34 35 35 33 34 34 31 31
15 21 24 24 21 22 23 22 23 25 25 24 24 25 25 24 23 25 27 28 28 26 23 24 24 24 26 27 31 31 33 31 31 31 28 28 29 32 32 32 32 32 32 29 30
16 20 22 23 21 20 21 22 23 24 24 23 22 23 22 21 24 24 26 28 28 28 25 25 25 25 23 26 29 31 31 33 30 29 29 29 31 32 32 33 33 32 31 29 27
17 20 20 20 21 21 20 20 20 20 21 21 20 19 18 19 21 22 25 26 28 27 28 25 24 25 26 28 29 30 31 33 31 30 29 30 29 28 30 32 31 31 29 27 27
18 17 19 20 21 20 18 18 19 18 18 18 17 16 17 17 17 17 19 22 24 27 27 25 23 26 25 28 29 30 31 31 33 32 31 31 26 28 29 28 27 27 27 26 25
17 18 18 19 20 19 17 17 17 18 18 18 17 15 14 16 15 16 18 20 23 24 25 24 24 23 23 26 28 27 30 30 31 27 28 26 25 27 24 24 23 24 23 23 23

GFSSW_925_temp_231.txt.gz
Temp
15 14 15 15 16 17 17 18 18 19 19 21 22 23 24 24 27 26 25 31 30 26 26 24 23 24 24 24 25 22 24 25 26 28 27 28 28 27 28 27 28 28 25 24 22
15 15 15 15 16 16 17 17 18 18 19 20 22 23 24 25 25 23 32 31 30 28 25 24 24 24 23 24 24 24 25 27 27 26 27 27 28 27 28 27 27 25 25 23 22
14 15 15 16 16 16 17 17 18 18 19 20 21 22 23 24 23 29 31 31 30 28 27 25 25 25 25 25 26 26 25 28 27 27 26 26 25 28 27 26 27 24 24 23 23
15 16 16 16 17 17 17 18 18 19 19 19 20 21 23 23 28 30 31 30 30 28 27 27 27 27 28 27 28 27 29 27 26 26 26 25 23 25 24 24 27 26 24 24 23
16 16 16 16 17 17 17 18 19 19 19 19 20 21 23 23 25 29 29 29 28 27 27 28 29 28 28 29 30 29 29 27 27 27 24 25 22 23 23 23 28 26 25 24 23
15 16 16 16 17 17 18 18 19 19 19 19 19 20 20 23 29 29 29 29 28 26 27 27 30 30 29 31 28 27 27 26 26 26 25 25 23 24 22 24 27 27 25 25 25
15 16 16 17 17 17 18 19 20 20 19 20 19 18 17 22 28 27 26 27 27 27 26 28 30 30 29 30 29 28 27 26 26 25 26 26 23 23 23 23 27 27 26 25 25
15 16 16 17 17 18 18 20 20 21 20 20 18 16 17 26 26 28 29 29 28 28 27 29 30 30 29 31 31 29 26 25 26 26 26 25 24 24 23 24 27 27 27 27 25
15 16 16 17 17 18 20 21 22 21 20 19 17 17 19 25 25 29 28 28 30 30 29 28 30 29 30 27 27 27 26 25 26 27 26 25 23 24 23 24 25 28 27 27 25
15 16 17 17 18 18 21 21 21 20 19 18 18 18 21 26 27 28 29 29 29 30 29 29 27 27 25 25 26 28 26 26 26 25 25 24 24 22 23 24 26 25 28 27 26
15 16 16 17 18 19 22 21 17 18 20 20 20 19 22 25 27 27 29 28 29 29 27 28 26 25 27 27 28 29 29 28 28 25 25 24 23 23 23 23 25 24 27 27 26
14 15 16 17 18 20 20 17 19 20 17 20 19 21 23 24 24 25 28 27 26 26 26 26 25 27 28 29 29 29 29 28 26 25 26 23 24 24 24 24 24 25 26 27 26
14 15 16 18 19 19 17 20 20 20 17 19 20 20 21 22 22 23 26 26 27 25 25 25 26 28 29 29 29 28 28 28 28 25 26 25 25 25 25 25 25 26 27 28 27
14 14 15 17 18 17 19 21 21 21 15 19 21 22 22 23 24 25 27 28 27 25 24 25 27 28 28 29 28 27 29 30 26 25 25 26 25 26 25 25 25 26 24 26 27
15 15 15 15 15 15 20 21 22 21 18 25 24 25 23 24 26 26 28 27 25 26 25 25 26 26 27 28 28 28 31 30 27 25 25 25 24 25 26 26 25 25 25 25 27
15 15 15 14 14 19 20 21 21 17 18 23 25 24 24 24 26 27 27 27 26 26 25 25 28 27 27 29 29 30 31 29 25 24 24 25 25 26 24 28 30 27 27 26 27
16 16 14 13 16 19 20 17 16 16 21 22 22 22 22 24 25 26 26 25 23 23 24 26 26 28 29 28 29 28 27 26 24 24 25 24 25 29 29 28 30 30 27 27 26
17 18 18 18 19 19 19 16 18 20 20 22 22 21 21 22 25 24 23 23 23 22 19 22 24 26 27 27 26 25 25 23 25 24 25 25 25 28 29 30 30 31 29 28 26
18 18 19 20 21 19 14 14 16 19 21 21 20 20 20 21 23 22 23 22 22 21 22 20 23 25 27 28 26 26 24 25 25 24 24 24 26 29 29 27 29 29 29 29 27
16 16 19 20 20 19 13 16 17 19 21 21 21 22 20 20 20 20 23 24 24 22 22 22 24 25 27 28 28 26 25 25 22 25 25 25 26 28 29 28 28 29 28 29 29
16 16 19 20 21 13 15 15 19 20 19 19 18 19 19 19 20 21 23 23 24 24 21 20 21 24 26 25 24 24 25 24 22 22 25 24 25 25 28 27 28 27 25 27 28
12 16 19 20 16 10 15 18 18 18 18 17 18 18 17 18 19 19 22 23 22 23 23 22 18 21 23 25 25 24 24 23 23 24 21 22 25 28 29 25 25 24 24 24 25
10 11 20 20 15 13 15 17 18 17 16 16 15 16 16 16 19 19 19 21 19 21 24 22 18 20 21 22 24 26 24 24 21 20 23 24 25 27 25 25 25 24 23 22 24
11 14 13 12 11 16 16 14 15 17 16 16 15 15 14 14 14 15 15 18 17 19 23 20 16 19 23 22 23 26 26 25 23 20 23 23 27 26 24 24 24 23 22 22 22
9 12 12 13 13 13 13 15 14 14 14 13 13 14 13 13 13 13 14 14 17 17 17 19 21 21 22 24 25 26 23 25 25 25 25 26 25 25 25 24 23 23 22 21 20
10 10 10 10 12 14 11 13 14 14 14 13 13 14 14 13 13 13 12 13 14 14 15 14 20 22 23 24 24 22 20 23 21 21 25 23 23 22 22 23 22 21 21 19 19
13 12 10 11 11 12 13 14 13 13 14 14 13 13 12 13 14 12 11 12 13 13 12 13 16 18 21 22 24 20 19 20 20 20 20 24 22 21 20 21 20 19 19 18 18

GFSSW_925_temp_234.txt.gz
Temp
15 15 16 16 16 17 17 18 18 19 20 21 22 22 22 24 27 26 25 30 29 26 24 24 24 24 24 25 24 22 24 25 25 26 26 28 26 27 27 26 27 26 23 23 21
16 16 16 16 17 17 17 18 18 19 19 20 21 22 23 24 25 23 29 30 29 27 23 24 24 24 24 24 24 24 24 26 26 25 25 26 26 27 27 26 24 23 22 21 20
16 16 16 16 17 17 17 18 18 19 19 20 21 22 23 24 24 29 28 28 29 26 26 25 25 26 24 24 25 25 26 27 26 26 27 25 25 26 26 25 25 23 21 21 21
16 16 16 16 17 17 17 18 18 19 19 20 20 22 23 24 28 28 29 26 27 26 26 25 25 25 25 24 26 26 27 28 25 26 26 24 24 25 24 24 25 24 22 22 21
14 15 16 16 17 17 18 18 19 19 19 20 20 21 23 23 24 28 28 27 26 26 26 26 24 27 27 28 27 27 27 26 26 26 26 24 24 24 23 24 26 24 23 22 22
15 16 16 16 17 17 18 18 19 20 20 20 20 20 20 23 28 27 26 26 27 25 26 27 29 28 28 29 27 26 26 25 25 25 26 24 23 25 22 24 25 24 23 22 22
16 16 16 17 17 18 18 19 20 20 20 20 19 19 18 21 26 25 24 25 26 25 25 27 29 29 29 28 27 27 25 25 24 24 25 24 23 23 23 23 25 24 23 23 23
16 16 16 17 18 18 19 20 21 21 21 20 19 17 17 25 25 26 27 27 27 25 27 28 28 29 29 28 28 27 25 24 25 25 25 25 24 24 23 23 24 25 24 24 23
16 16 17 17 18 19 20 20 20 21 20 19 17 17 19 24 24 26 27 27 28 26 26 28 28 27 29 27 26 25 26 25 25 26 25 24 24 23 22 23 24 26 25 25 24
15 16 16 17 18 20 21 20 19 19 17 17 17 18 21 24 25 26 27 27 28 27 26 26 25 25 24 27 25 26 26 25 26 24 25 24 23 22 23 23 24 25 26 25 24
14 15 17 17 18 20 21 19 15 16 18 19 20 19 20 24 25 25 26 25 28 28 25 26 25 24 26 26 29 28 27 28 25 24 24 23 24 22 23 23 24 23 26 26 25
14 15 16 17 19 20 20 16 18 17 15 17 17 19 22 23 22 23 26 26 25 25 25 24 24 25 27 27 28 28 28 28 25 24 25 23 24 23 23 23 23 24 24 26 25
13 14 15 18 19 19 18 18 17 17 16 18 18 19 20 21 21 22 24 25 25 24 24 23 26 27 28 28 28 27 27 28 27 25 25 23 24 24 24 24 24 24 25 25 26
14 15 15 17 18 17 18 19 19 18 14 19 22 22 21 21 22 23 25 26 26 24 23 24 26 27 26 28 28 27 27 29 25 25 25 25 25 23 23 24 24 24 25 26 26
14 14 16 16 15 15 20 20 20 19 17 23 23 24 22 22 24 24 26 26 24 24 24 24 25 26 26 27 28 28 29 29 26 24 25 25 23 24 24 23 25 25 25 26 26
16 15 16 15 14 19 19 20 20 16 17 20 22 22 23 23 24 25 26 25 24 24 24 25 26 26 26 28 28 29 29 24 22 22 23 25 24 25 23 26 26 26 25 26 26
17 17 17 15 16 18 19 16 15 16 20 20 21 19 18 22 23 24 24 24 22 22 23 25 26 27 28 27 27 27 25 24 24 22 23 23 24 27 27 27 27 26 26 26 26
18 18 19 18 18 19 19 15 18 19 19 21 20 19 20 20 22 21 23 22 22 20 18 21 23 25 27 26 25 24 24 22 25 23 24 23 24 27 27 28 28 28 28 27 26
19 19 19 19 19 19 14 14 17 18 19 19 19 19 19 19 20 21 22 21 22 21 22 19 21 24 25 26 26 25 23 24 23 22 23 23 25 27 28 27 27 27 26 26 26
18 18 18 19 18 18 13 15 18 17 17 19 18 18 18 18 19 19 21 24 23 21 22 21 23 23 26 27 26 24 23 24 19 23 24 24 25 25 27 28 27 26 26 26 26
17 15 18 18 18 13 14 15 17 18 17 17 16 17 17 17 16 18 20 22 18 21 20 19 20 23 25 24 23 23 23 20 21 20 22 24 24 24 27 27 26 25 25 26 26
13 16 19 18 15 8 14 15 16 17 16 16 16 16 15 16 16 18 19 21 18 17 23 21 17 20 23 23 23 22 23 22 21 23 20 21 24 27 24 24 25 24 25 25 25
11 11 18 18 14 12 15 16 16 15 15 14 14 15 15 15 16 17 17 19 17 17 17 20 17 18 20 21 23 25 22 20 19 19 21 22 24 24 23 23 23 23 23 23 23
10 14 12 10 8 14 14 14 14 15 14 14 13 14 14 14 14 14 14 16 16 16 20 18 15 18 19 21 21 24 24 22 21 19 22 21 26 26 25 24 22 21 21 21 21
8 11 11 12 12 11 13 14 13 13 13 12 13 13 13 13 14 14 14 13 16 15 15 15 19 18 19 19 23 22 22 21 22 22 24 25 23 24 23 22 21 20 20 20 19
9 10 8 9 10 13 11 13 13 13 13 13 13 13 13 12 13 12 12 13 13 13 12 12 18 20 23 23 22 19 19 20 20 20 22 24 23 21 21 20 20 19 19 19 19
10 10 9 10 10 12 11 14 13 13 13 14 13 12 12 11 12 11 12 12 13 12 11 11 14 16 21 20 21 21 19 20 21 21 20 21 21 21 21 20 19 19 19 18 18

GFSSW_925_temp_240.txt.gz
Temp
16 16 17 17 17 18 18 19 19 20 20 21 22 22 23 24 25 24 32 31 28 26 24 24 27 28 25 28 26 27 31 31 30 33 31 32 32 32 32 31 31 31 31 29 26
16 16 16 17 17 18 18 18 19 20 20 21 21 22 23 24 24 30 30 29 29 26 25 24 28 29 27 27 26 26 32 32 31 32 32 32 33 32 31 30 29 30 30 28 27
16 16 17 17 17 18 18 19 19 20 20 21 21 22 23 24 29 34 29 29 28 27 29 26 27 31 29 31 29 30 30 31 32 32 30 32 31 33 32 30 30 29 28 28 27
16 17 17 17 18 18 19 19 19 20 20 21 21 22 23 23 32 30 28 28 26 26 29 30 29 31 33 32 32 32 30 32 31 32 31 31 28 32 32 30 31 29 29 29 29
16 17 17 17 18 18 19 19 20 20 21 21 21 22 24 30 32 26 27 26 24 27 31 32 32 32 33 34 34 34 33 33 33 32 31 30 30 30 29 30 30 30 30 30 30
16 16 16 17 18 19 19 20 21 21 21 21 21 21 25 29 27 26 25 24 27 29 31 33 33 34 34 34 34 34 34 33 33 31 31 30 29 30 29 30 29 29 30 30 30
16 16 16 17 17 19 20 21 21 22 22 21 21 20 26 30 26 26 26 27 28 30 32 32 32 32 34 34 33 34 33 33 32 32 31 31 29 29 29 29 28 29 30 30 30
15 15 15 16 18 19 20 21 21 22 22 21 20 21 28 25 25 25 26 27 28 28 30 31 31 33 33 34 34 34 34 34 33 32 31 31 31 29 29 29 28 30 30 30 30
15 16 16 17 18 20 20 20 20 21 21 20 21 24 29 24 26 28 27 29 29 29 29 30 32 34 33 34 34 34 35 34 32 33 32 32 32 30 30 30 30 30 30 30 30
15 16 17 18 19 20 20 20 20 20 18 19 21 25 28 29 28 28 28 28 30 31 30 31 33 33 34 35 34 35 35 35 34 33 31 31 32 31 30 31 31 31 31 30 31
16 17 18 18 19 20 20 20 25 25 25 26 27 27 28 27 27 28 28 29 31 31 31 32 33 33 34 35 36 35 35 35 34 33 32 33 33 33 31 31 32 31 31 31 31
17 18 18 19 20 20 21 25 22 21 24 27 26 26 26 26 27 29 28 30 30 31 32 32 32 35 35 35 35 34 34 35 34 33 33 34 34 34 33 31 33 32 32 32 32
18 18 19 19 19 20 22 21 19 19 25 27 27 27 27 26 27 29 29 31 31 31 32 33 33 35 35 34 34 35 35 35 34 33 34 33 34 34 34 33 32 33 33 33 32
18 19 19 20 20 19 22 19 19 19 26 27 28 27 27 27 27 29 30 31 31 31 33 33 35 34 34 33 34 34 36 35 34 34 34 34 35 34 34 33 32 32 33 33 33
19 20 20 21 20 23 20 19 20 21 25 27 28 27 29 27 28 29 29 30 30 31 33 32 33 33 32 33 35 34 36 35 35 34 35 35 34 37 35 33 33 33 33 34 33
20 20 20 19 18 20 19 20 22 25 25 26 28 27 28 28 28 29 29 30 31 32 33 33 34 34 34 35 35 35 34 34 34 35 34 35 35 36 36 35 35 34 34 34 34
20 21 20 19 23 19 20 24 25 25 26 25 26 27 27 27 28 28 28 28 29 29 29 31 32 33 34 33 34 34 34 32 32 33 33 36 34 35 37 37 36 35 35 34 34
21 21 19 19 18 18 23 26 23 24 24 25 26 27 27 27 28 28 28 29 30 31 32 30 30 32 33 33 33 33 34 33 31 33 35 36 33 36 37 37 38 37 36 35 34
20 20 21 20 18 19 26 25 23 23 23 23 26 26 26 27 26 27 28 29 30 30 30 31 31 33 33 34 34 33 33 35 34 35 35 36 36 37 37 37 37 37 37 36 35
21 23 22 19 19 23 26 21 23 23 23 24 24 25 25 25 26 27 28 26 27 28 29 31 30 32 33 33 33 34 35 33 34 32 31 34 35 36 36 37 37 37 37 37 36
21 25 22 21 20 26 24 23 23 23 22 22 23 23 24 24 25 26 27 25 25 27 28 31 30 31 32 31 32 32 32 33 34 34 33 33 35 37 37 37 36 37 37 37 36
24 25 22 21 25 24 24 22 17 22 23 22 23 23 23 23 24 25 25 24 24 25 28 30 30 29 30 32 33 33 32 33 32 32 34 35 35 38 36 36 35 36 34 36 37
24 24 22 23 24 24 22 22 21 21 21 21 21 21 22 22 22 24 24 24 23 24 24 28 29 29 29 30 31 31 33 33 34 34 33 32 34 37 36 34 34 34 33 33 35
23 24 24 23 22 22 22 21 21 20 20 20 20 21 21 22 23 22 23 23 24 23 20 22 28 29 29 30 31 29 31 33 33 32 33 33 34 36 36 35 32 33 31 32 32
22 21 19 22 21 21 21 20 20 20 20 20 21 20 19 20 21 22 22 22 24 22 24 25 26 28 29 31 31 31 31 31 31 33 33 34 34 35 36 35 31 30 30 30 30
21 21 20 20 19 20 17 20 19 19 19 20 19 19 19 19 19 18 20 20 21 22 22 24 25 26 27 30 30 30 31 32 32 32 32 33 34 35 32 31 29 27 28 27 27
17 17 20 15 20 20 20 19 19 19 19 19 18 18 19 19 19 19 19 20 20 19 20 22 24 25 27 29 29 28 30 31 31 32 32 32 33 34 28 24 22 23 22 21 20

GFSSW_925_temp_243.txt.gz
Temp
17 17 17 18 18 18 19 19 19 20 21 21 22 22 23 24 27 26 33 32 30 27 25 28 29 30 30 32 30 33 29 30 34 33 34 35 35 35 35 34 34 34 33 32 30
17 17 17 18 18 18 19 19 20 20 21 22 22 23 23 24 25 32 31 31 29 27 26 30 32 33 30 29 29 33 31 34 33 35 35 36 35 34 34 33 33 34 33 30 30
17 17 17 18 18 18 19 20 20 20 21 21 22 23 23 24 31 35 30 31 29 28 27 27 31 32 30 31 32 33 34 35 36 36 35 35 35 36 35 34 34 32 32 31 31
17 17 17 17 18 18 19 20 20 21 21 21 22 23 24 24 33 31 29 30 28 28 29 29 32 30 33 34 33 32 34 36 35 35 35 33 34 34 34 33 34 33 32 32 32
16 16 16 17 18 19 20 20 21 21 21 22 22 22 24 31 34 29 29 28 25 28 33 33 34 35 32 35 37 32 34 34 33 35 34 34 33 32 32 34 33 33 32 32 33
16 16 16 17 19 20 20 21 21 22 22 22 22 22 24 31 32 30 29 26 29 30 33 35 36 36 36 37 32 35 36 37 36 34 34 34 32 32 32 33 33 32 33 33 33
15 16 16 18 19 20 21 21 21 22 22 22 22 21 29 33 30 31 30 29 31 32 35 35 36 36 37 36 37 38 36 37 36 35 35 35 33 32 32 33 32 31 33 33 33
15 16 17 18 19 20 21 21 21 22 22 22 22 23 30 29 30 29 31 32 32 33 34 35 34 36 36 37 37 37 36 36 36 36 35 34 29 33 33 32 31 32 33 33 33
16 17 17 18 20 20 21 21 21 21 22 22 22 27 32 28 30 31 31 32 33 33 33 33 34 35 37 36 35 36 34 33 27 36 35 35 30 33 33 33 31 33 33 33 33
17 18 18 19 20 21 21 21 21 21 21 22 25 28 31 32 31 31 31 32 34 34 34 33 34 35 36 37 34 36 37 32 36 36 35 34 35 34 34 34 32 34 33 33 33
18 18 19 19 20 21 22 20 26 26 28 30 31 31 31 31 30 30 31 32 33 34 33 34 34 34 36 37 38 37 38 38 38 36 36 36 36 34 34 34 32 32 33 34 34
19 19 20 20 21 22 22 29 26 26 27 31 30 30 30 30 29 32 32 31 32 32 34 34 33 36 37 38 38 35 37 38 36 37 36 37 37 37 36 35 32 32 34 34 34
19 20 20 21 22 22 26 25 24 25 27 30 31 31 31 30 30 32 33 32 33 32 34 34 36 36 37 37 37 37 37 38 37 36 37 37 36 37 37 35 34 33 34 35 35
20 20 21 21 21 25 27 25 25 25 28 29 30 31 31 31 30 32 33 32 33 33 34 35 36 36 36 36 37 36 38 38 36 36 36 38 35 37 37 36 35 36 34 34 35
20 21 21 21 24 27 25 25 25 26 28 30 31 31 32 31 32 32 32 32 32 33 34 34 35 36 35 36 37 37 38 38 38 37 37 37 37 38 38 36 36 36 34 34 35
21 21 21 21 24 25 25 25 26 27 27 29 31 30 31 32 31 32 31 32 33 33 34 35 37 37 37 37 37 37 37 37 36 37 36 38 38 39 38 38 37 37 36 36 36
21 21 21 21 26 24 24 27 28 29 29 29 28 30 30 31 31 31 31 31 30 30 31 33 35 37 37 36 37 37 36 35 34 35 35 39 38 39 39 39 39 37 37 37 37
21 21 23 23 24 24 25 28 27 27 28 28 29 29 29 30 30 30 30 31 32 32 33 32 32 35 36 35 35 36 36 35 33 35 36 38 36 38 40 40 40 39 38 37 37
21 23 25 25 24 24 27 28 27 26 27 27 28 28 29 30 29 30 30 31 32 32 31 33 33 36 36 36 36 35 35 37 37 38 37 39 39 39 39 39 40 39 39 38 37
22 27 27 25 25 26 28 23 27 26 26 27 26 27 27 28 28 29 30 30 31 32 34 33 32 35 36 36 36 36 37 35 36 34 34 37 37 38 38 38 39 39 39 39 38
22 28 26 26 26 28 28 27 26 27 26 26 26 26 27 26 27 28 29 28 28 29 31 31 32 33 36 34 34 35 35 36 37 36 35 35 37 40 39 39 38 39 39 39 39
26 28 26 26 27 28 28 26 19 26 26 26 26 26 25 25 26 27 27 25 27 28 28 31 32 31 34 35 35 36 35 36 35 34 36 37 37 41 40 39 38 39 38 39 40
27 28 26 26 27 28 26 26 25 25 25 25 24 25 25 24 24 26 27 28 27 27 26 27 30 30 31 34 34 33 34 36 36 36 35 35 36 40 39 38 37 37 37 36 39
27 27 28 27 27 26 26 26 25 25 24 23 24 24 24 24 25 25 26 27 27 27 22 24 29 30 31 32 34 32 33 34 35 35 35 36 37 38 38 37 36 35 34 35 37
26 26 25 27 27 25 25 25 24 24 24 24 23 24 23 22 24 24 26 26 26 23 26 27 27 29 31 32 34 33 33 33 33 34 35 36 36 38 38 36 34 34 33 34 35
24 24 25 25 24 24 20 25 23 23 23 23 22 23 23 22 23 22 23 23 24 26 25 27 26 28 29 31 32 32 33 34 33 34 35 36 36 39 37 34 32 31 32 29 26
22 23 24 20 25 24 25 23 23 22 23 22 22 22 22 22 22 22 22 23 23 23 23 24 25 27 27 30 30 30 32 33 34 34 35 34 36 37 30 26 26 26 24 22 21

GFSSW_925_temp_249.txt.gz
Temp
17 17 18 18 19 19 20 20 21 21 21 22 23 23 23 24 27 28 28 32 31 29 28 28 27 27 29 30 31 24 24 24 25 28 34 35 34 35 33 31 30 31 29 29 29
17 17 17 18 19 19 20 20 21 21 22 22 22 23 23 23 24 26 32 31 31 30 28 29 31 32 27 32 32 24 23 25 27 26 33 33 34 34 33 31 29 30 30 30 30
16 16 17 18 19 20 20 20 21 21 22 22 22 23 23 24 24 31 31 31 30 30 30 31 31 32 28 31 30 23 23 23 25 26 26 34 33 34 33 30 30 29 29 30 30
15 16 17 18 19 20 20 21 21 22 22 22 23 23 24 24 29 30 31 31 29 29 29 31 31 29 28 29 32 28 26 24 25 27 32 32 33 32 33 31 31 30 30 30 29
17 17 17 18 19 20 20 21 21 22 22 22 23 23 24 25 28 31 32 31 29 28 29 31 31 29 29 33 33 32 31 30 30 33 34 34 32 33 32 32 31 31 30 29 29
17 17 17 18 20 20 21 21 21 22 22 22 23 23 22 26 32 32 32 30 29 28 30 32 33 34 31 33 33 32 32 31 29 34 34 33 31 32 32 32 31 31 30 30 30
17 18 18 19 20 20 21 21 21 22 22 22 23 22 24 26 32 31 30 31 31 31 30 32 34 33 35 34 33 32 29 29 29 33 30 32 28 31 32 32 30 30 30 30 30
18 19 19 20 20 21 22 22 22 22 22 22 22 21 23 31 32 32 33 33 32 32 32 33 34 33 34 34 34 32 28 26 27 27 31 32 26 28 30 31 30 30 31 31 29
19 19 20 20 21 22 23 23 23 23 23 22 22 23 27 32 32 32 32 33 33 33 34 34 35 32 32 31 31 32 29 28 25 27 31 32 27 28 31 31 30 30 31 31 29
19 20 21 21 22 23 24 24 24 23 24 21 23 24 27 32 33 32 32 33 33 33 33 33 31 29 29 29 29 30 31 30 30 31 30 32 29 30 32 31 29 29 30 30 30
20 21 21 22 23 23 24 24 23 22 23 26 27 29 32 32 33 32 32 32 32 31 29 31 29 27 29 31 33 34 35 30 31 32 31 29 30 30 32 31 29 29 29 30 30
20 21 22 23 24 23 23 23 27 28 24 28 30 32 32 32 31 31 33 31 31 28 30 29 28 31 33 33 33 33 33 33 34 34 32 31 32 30 32 31 30 30 30 31 30
21 21 22 23 24 24 25 28 28 29 25 30 32 32 32 32 31 31 32 30 29 28 29 27 30 33 33 33 33 33 32 33 34 34 34 32 30 30 32 33 31 31 31 32 31
21 22 22 23 23 24 27 28 28 28 23 29 30 31 32 31 30 34 33 31 31 28 29 28 31 32 33 33 33 31 35 36 32 31 28 34 30 30 31 32 31 31 31 32 32
21 22 22 21 21 22 28 28 28 28 24 31 31 33 32 31 31 32 33 32 29 29 30 28 29 30 31 32 34 33 35 35 35 30 30 32 30 31 32 32 30 31 32 32 32
21 22 23 22 22 26 28 28 28 24 26 31 32 30 29 30 31 33 32 31 32 29 29 28 31 30 31 33 34 35 34 34 33 30 29 31 32 32 32 32 31 32 32 32 32
22 22 22 22 24 27 28 27 23 23 31 29 28 29 28 28 30 31 30 28 27 27 25 27 29 30 32 31 32 33 31 30 30 29 28 32 31 33 34 35 33 32 32 32 32
22 23 23 23 26 26 28 24 24 29 28 29 28 28 27 30 30 30 28 27 29 28 26 26 26 29 32 30 30 31 31 30 27 28 29 32 31 34 35 37 34 33 33 33 32
23 24 23 26 26 27 24 23 26 27 28 27 27 27 28 29 28 29 28 26 27 26 23 23 24 29 32 32 32 31 30 32 30 31 31 33 34 35 35 35 35 34 33 33 33
22 23 25 27 28 28 24 23 27 28 27 27 25 26 25 26 26 25 26 27 26 27 25 25 23 27 30 31 31 31 33 31 31 29 29 30 32 32 34 35 35 35 33 33 33
21 22 28 28 29 24 23 26 29 29 28 26 25 25 25 25 25 24 25 26 26 26 25 24 23 24 27 27 28 30 31 31 32 30 29 28 29 32 34 36 35 35 34 33 33
21 22 29 28 24 24 24 28 25 28 28 28 27 26 25 25 24 23 24 25 27 26 25 25 22 22 25 28 30 30 30 31 31 28 28 29 32 37 34 32 37 34 34 33 33
19 24 29 29 24 25 27 29 28 27 26 25 25 25 24 23 22 24 24 26 27 26 24 24 21 20 22 25 29 29 28 29 31 28 29 27 29 33 32 32 30 28 33 32 33
19 23 26 26 26 26 26 26 27 28 26 26 25 24 23 23 23 22 23 26 26 26 24 22 22 21 21 23 25 26 27 29 29 28 29 30 32 32 32 31 31 27 26 25 23
21 23 23 23 24 25 25 25 25 26 27 26 25 25 23 21 21 21 23 23 24 24 23 22 20 22 23 25 26 26 27 28 28 29 30 31 31 32 29 29 26 24 23 23 23
21 21 22 23 24 26 24 25 26 26 24 24 23 24 22 21 20 19 20 19 20 21 20 21 19 21 21 24 25 26 27 29 29 30 31 32 30 28 27 23 21 21 22 21 22
21 21 21 21 24 24 25 25 25 25 25 25 23 22 21 21 21 20 20 20 20 20 19 19 19 18 19 22 23 23 25 25 26 30 30 29 29 26 25 23 21 20 21 20 20